• In Hungary
  • List of Countries
  • For 7 days
  • Water Temperature
  • Satellite Maps
  • Weather Map
  • News
  • Weather Widgets
  • user-avatar
    Login

    Hourly Weather Sveti Vlas

    Today, 21 September, Friday

    Time Temperature Precipitation Wind Pressure Humidity
    00:00 +17°C° 0 mm 3 mps 757 mmHg 90%
    01:00 +17°C° 0 mm 3 mps 757 mmHg 91%
    02:00 +17°C° 0 mm 3 mps 757 mmHg 91%
    03:00 +16°C° 0 mm 3 mps 757 mmHg 91%
    04:00 +16°C° 0 mm 3 mps 757 mmHg 91%
    05:00 +16°C° 0 mm 3 mps 757 mmHg 90%
    06:00 +17°C° 0 mm 3 mps 757 mmHg 84%
    07:00 +19°C° 0 mm 3 mps 757 mmHg 77%
    08:00 +20°C° 0 mm 3 mps 757 mmHg 71%
    09:00 +22°C° 0 mm 4 mps 757 mmHg 61%
    10:00 +25°C° 0 mm 4 mps 757 mmHg 51%
    11:00 +28°C° 0 mm 4 mps 758 mmHg 42%
    12:00 +28°C° 0 mm 4 mps 757 mmHg 40%
    13:00 +29°C° 0 mm 4 mps 757 mmHg 38%
    14:00 +30°C° 0 mm 4 mps 757 mmHg 36%
    15:00 +29°C° 0 mm 4 mps 757 mmHg 41%
    16:00 +28°C° 0 mm 4 mps 756 mmHg 46%
    17:00 +27°C° 0 mm 4 mps 756 mmHg 51%
    18:00 +25°C° 0 mm 3 mps 756 mmHg 61%
    19:00 +22°C° 0 mm 3 mps 756 mmHg 70%
    20:00 +20°C° 0 mm 2 mps 756 mmHg 80%
    21:00 +20°C° 0 mm 2 mps 756 mmHg 83%
    22:00 +19°C° 0 mm 2 mps 757 mmHg 85%
    23:00 +20°C° 0 mm 1 mps 757 mmHg 88%

    Tomorrow, 22 September, Saturday

    Time Temperature Precipitation Wind Pressure Humidity
    00:00 +19°C° 0 mm 1 mps 757 mmHg 89%
    01:00 +19°C° 0 mm 1 mps 756 mmHg 89%
    02:00 +19°C° 0 mm 1 mps 756 mmHg 90%
    03:00 +18°C° 0 mm 1 mps 756 mmHg 90%
    04:00 +18°C° 0 mm 1 mps 756 mmHg 90%
    05:00 +18°C° 0 mm 1 mps 756 mmHg 91%
    06:00 +19°C° 0 mm 1 mps 756 mmHg 84%
    07:00 +21°C° 0 mm 1 mps 757 mmHg 78%
    08:00 +22°C° 0 mm 1 mps 757 mmHg 72%
    09:00 +24°C° 0 mm 1 mps 757 mmHg 61%
    10:00 +27°C° 0 mm 1 mps 757 mmHg 50%
    11:00 +29°C° 0 mm 1 mps 757 mmHg 40%
    12:00 +30°C° 0 mm 2 mps 756 mmHg 37%
    13:00 +30°C° 0 mm 2 mps 756 mmHg 35%
    14:00 +31°C° 0 mm 3 mps 756 mmHg 32%
    15:00 +30°C° 0 mm 3 mps 755 mmHg 36%
    16:00 +29°C° 0 mm 3 mps 755 mmHg 40%
    17:00 +28°C° 0 mm 3 mps 755 mmHg 44%
    18:00 +26°C° 0 mm 3 mps 755 mmHg 54%
    19:00 +24°C° 0 mm 3 mps 755 mmHg 64%
    20:00 +21°C° 0 mm 2 mps 756 mmHg 74%
    21:00 +20°C° 0 mm 2 mps 756 mmHg 74%
    22:00 +20°C° 0 mm 2 mps 756 mmHg 75%
    23:00 +20°C° 0 mm 2 mps 756 mmHg 75%

    Day after tomorrow, 23 September, Sunday

    Time Temperature Precipitation Wind Pressure Humidity
    00:00 +20°C° 0 mm 2 mps 756 mmHg 73%
    01:00 +19°C° 0 mm 2 mps 756 mmHg 71%
    02:00 +19°C° 0 mm 2 mps 756 mmHg 70%
    03:00 +19°C° 0 mm 3 mps 756 mmHg 66%
    04:00 +19°C° 0 mm 3 mps 756 mmHg 62%
    05:00 +19°C° 0 mm 4 mps 757 mmHg 58%
    06:00 +20°C° 0 mm 5 mps 757 mmHg 56%
    07:00 +21°C° 0 mm 6 mps 758 mmHg 54%
    08:00 +22°C° 0 mm 8 mps 758 mmHg 52%
    09:00 +23°C° 0 mm 7 mps 759 mmHg 49%
    10:00 +24°C° 0 mm 6 mps 759 mmHg 46%
    11:00 +26°C° 0 mm 6 mps 760 mmHg 43%
    12:00 +26°C° 0 mm 6 mps 760 mmHg 41%
    13:00 +27°C° 0 mm 5 mps 760 mmHg 40%
    14:00 +28°C° 0 mm 5 mps 760 mmHg 38%
    15:00 +27°C° 0 mm 5 mps 760 mmHg 41%
    16:00 +26°C° 0 mm 5 mps 760 mmHg 43%
    17:00 +25°C° 0 mm 5 mps 760 mmHg 45%
    18:00 +22°C° 0 mm 5 mps 760 mmHg 53%
    19:00 +20°C° 0 mm 5 mps 760 mmHg 62%
    20:00 +18°C° 0 mm 4 mps 761 mmHg 70%
    21:00 +18°C° 0 mm 4 mps 761 mmHg 71%
    22:00 +18°C° 0 mm 4 mps 761 mmHg 73%
    23:00 +17°C° 0 mm 4 mps 761 mmHg 74%

    24 September, Monday

    Time Temperature Precipitation Wind Pressure Humidity
    00:00 +17°C° 0 mm 4 mps 761 mmHg 76%
    01:00 +17°C° 0 mm 3 mps 761 mmHg 78%
    02:00 +17°C° 0 mm 3 mps 760 mmHg 80%
    03:00 +17°C° 0 mm 3 mps 760 mmHg 82%
    04:00 +17°C° 0 mm 3 mps 760 mmHg 84%
    05:00 +16°C° 0 mm 3 mps 759 mmHg 86%
    06:00 +18°C° 0 mm 3 mps 759 mmHg 79%
    07:00 +19°C° 0 mm 4 mps 758 mmHg 73%
    08:00 +20°C° 0 mm 4 mps 758 mmHg 66%
    09:00 +22°C° 0 mm 4 mps 757 mmHg 59%
    10:00 +25°C° 0 mm 5 mps 757 mmHg 51%
    11:00 +27°C° 0 mm 5 mps 757 mmHg 43%
    12:00 +28°C° 0 mm 5 mps 756 mmHg 40%
    13:00 +29°C° 0 mm 6 mps 755 mmHg 37%
    14:00 +30°C° 0 mm 6 mps 754 mmHg 34%
    15:00 +30°C° 0 mm 6 mps 754 mmHg 37%
    16:00 +29°C° 0 mm 6 mps 753 mmHg 39%
    17:00 +29°C° 0 mm 6 mps 753 mmHg 41%
    18:00 +27°C° 0 mm 5 mps 752 mmHg 48%
    19:00 +25°C° 0 mm 5 mps 752 mmHg 56%
    20:00 +22°C° 0 mm 5 mps 752 mmHg 63%
    21:00 +22°C° 0 mm 4 mps 752 mmHg 63%
    22:00 +21°C° 0 mm 4 mps 752 mmHg 62%
    23:00 +21°C° 0 mm 4 mps 752 mmHg 62%

    25 September, Tuesday

    Time Temperature Precipitation Wind Pressure Humidity
    00:00 +21°C° 0 mm 6 mps 753 mmHg 58%
    01:00 +19°C° 0 mm 9 mps 753 mmHg 54%
    02:00 +19°C° 0 mm 12 mps 754 mmHg 50%
    03:00 +18°C° 0 mm 11 mps 754 mmHg 50%
    04:00 +17°C° 0 mm 11 mps 755 mmHg 51%
    05:00 +16°C° 0 mm 10 mps 756 mmHg 51%
    06:00 +16°C° 0 mm 10 mps 756 mmHg 48%
    07:00 +16°C° 0 mm 9 mps 757 mmHg 44%
    08:00 +15°C° 0 mm 9 mps 758 mmHg 41%
    09:00 +15°C° 0 mm 8 mps 758 mmHg 41%
    10:00 +16°C° 0 mm 7 mps 759 mmHg 42%
    11:00 +16°C° 0 mm 7 mps 759 mmHg 42%
    12:00 +16°C° 0 mm 6 mps 759 mmHg 41%
    13:00 +17°C° 0 mm 5 mps 759 mmHg 40%
    14:00 +19°C° 0 mm 5 mps 759 mmHg 40%
    15:00 +19°C° 0 mm 4 mps 759 mmHg 39%
    16:00 +19°C° 0 mm 4 mps 759 mmHg 39%
    17:00 +19°C° 0 mm 4 mps 759 mmHg 38%
    18:00 +18°C° 0 mm 4 mps 760 mmHg 41%
    19:00 +15°C° 0 mm 4 mps 760 mmHg 44%
    20:00 +14°C° 0 mm 4 mps 761 mmHg 46%
    21:00 +13°C° 0 mm 5 mps 761 mmHg 45%
    22:00 +13°C° 0 mm 6 mps 761 mmHg 45%
    23:00 +11°C° 0 mm 6 mps 762 mmHg 44%

    26 September, Wednesday

    Time Temperature Precipitation Wind Pressure Humidity
    00:00 +11°C° 0.1 mm 7 mps 762 mmHg 45%
    01:00 +10°C° 0.1 mm 7 mps 762 mmHg 46%
    02:00 +10°C° 0.1 mm 8 mps 762 mmHg 47%
    03:00 +9°C° 0 mm 7 mps 762 mmHg 49%
    04:00 +9°C° 0 mm 7 mps 762 mmHg 52%
    05:00 +8°C° 0 mm 7 mps 762 mmHg 54%
    06:00 +9°C° 0 mm 6 mps 762 mmHg 51%
    07:00 +9°C° 0 mm 6 mps 762 mmHg 48%
    08:00 +10°C° 0 mm 6 mps 762 mmHg 45%
    09:00 +13°C° 0 mm 6 mps 762 mmHg 40%
    10:00 +14°C° 0 mm 5 mps 762 mmHg 35%
    11:00 +16°C° 0 mm 5 mps 762 mmHg 30%
    12:00 +17°C° 0 mm 5 mps 761 mmHg 28%
    13:00 +18°C° 0 mm 4 mps 761 mmHg 26%
    14:00 +19°C° 0 mm 4 mps 760 mmHg 25%
    15:00 +18°C° 0 mm 4 mps 760 mmHg 26%
    16:00 +18°C° 0 mm 4 mps 760 mmHg 27%
    17:00 +17°C° 0 mm 4 mps 760 mmHg 28%
    18:00 +15°C° 0 mm 4 mps 760 mmHg 33%
    19:00 +14°C° 0 mm 4 mps 761 mmHg 37%
    20:00 +12°C° 0 mm 4 mps 761 mmHg 42%
    21:00 +12°C° 0 mm 4 mps 761 mmHg 44%
    22:00 +12°C° 0 mm 5 mps 761 mmHg 45%
    23:00 +12°C° 0 mm 5 mps 761 mmHg 47%
    Show more